Погода в Алхан-Юрте

Россия / Чеченская Республика     43°13′42″N   45°33′49″E
темп.,
°C
ветер,
м/с
пор.,
м/с
влажн.,
%
обл.,
%
осадки,
мм/ч
давл.,
гПа
погр.,
м
26 января, вт
вт2600:00+1юз00780 0.0 101922
03:000зсз11793 0.0 101722
06:00+1ююв0078100 0.0 101822
09:00+3ссз0165100 0.0 101926
12:00+6ссз1251100 0.0 1019351
15:00+8с114798 0.0 1020410
18:00+4вюв116124 0.0 102222
21:00+3всв116912 0.0 102122
27 января, ср
ср2700:00+1в01769 0.0 102122
03:00+1сз00778 0.0 102022
06:000ссв01793 0.0 101822
09:00+2св117230 0.0 101749
12:00+6св225436 0.0 1014327
15:00+8ссв115533 0.0 1011403
18:00+5ююз006951 0.0 101222
21:00+4зсз227775 0.0 101022
28 января, чт
чт2800:00+3з1183100 0.0 101022
03:00+2зсз118268 0.0 100922
06:00+2сз11790 0.0 100822
09:00+4юз006721 0.0 100731
12:00+8св1150100 0.0 1005243
15:00+9всв2247100 0.0 1003312
18:00+6зсз497395 0.0 1006320
21:00+6з5136693 0.0 1007433
29 января, пт
пт2900:00+6зюз497622 0.0 1008252
03:00+6ююз127851 0.0 100925
06:00+5зсз5109192 1.4 1012574
09:00+5зюз358693 2.6 1013401
12:00+8ссв226167 0.0 1012888
15:00+7ссв345780 0.0 10121069
18:00+6в246291 0.0 1014193
21:00+5ссв146187 0.0 1015182
30 января, сб
сб3000:00+4всв258891 0.0 1014335
03:00+4в128996 0.0 1013207
06:00+3в119476 0.0 101222
09:00+4ссз118969 0.0 1012123
12:00+7ссз116889 0.0 1010486
15:00+8в236094 0.0 1009644
18:00+6в127319 0.0 101023
21:00+4всв22909 0.0 101046